Hourly Data Report for May 11, 2012

All times are specified in Local Standard Time (LST). Add 1 hour to adjust for Daylight Saving Time where and when it is observed.

YARMOUTH A
NOVA SCOTIA

43°49'37.000" N
66°05'17.000" W
42.90 m
8206495
71603
YQI

Download Data

Hourly Data (May 2012)
Hourly Data Report for May 11, 2012
Temp Definition
°C
Dew Point Temp Definition
°C
Rel Hum Definition
%
Wind Dir Definition
10's deg

Wind Spd Definition
km/h
Visibility Definition
km
Stn Press Definition
kPa
Hmdx Definition


Wind Chill Definition


Weather Definition


TIME
00:00 Legend Double Dagger 9.8 9.0 95 22 23 10.0 99.76     LegendNANA
01:00 Legend Double Dagger 9.3 8.6 95 22 26 10.0 99.79     LegendNANA
02:00 Legend Double Dagger 8.6 8.2 97 21 19 10.0 99.81     Mainly Clear
03:00 Legend Double Dagger 8.2 7.9 98 22 21 10.0 99.86     LegendNANA
04:00 Legend Double Dagger 8.1 7.7 97 23 21 8.1 99.93     Fog
05:00 Legend Double Dagger 7.8 7.5 98 22 18 9.7 100.00     Fog
06:00 Legend Double Dagger 8.1 7.7 97 22 18 10.0 100.12     LegendNANA
07:00 Legend Double Dagger 9.3 8.2 93 22 12 10.0 100.22     LegendNANA
08:00 Legend Double Dagger 10.0 8.1 88 22 23 10.0 100.29     Mainly Clear
09:00 Legend Double Dagger 10.6 8.0 84 22 19 10.0 100.36     LegendNANA
10:00 Legend Double Dagger 10.8 8.1 83 22 27 10.0 100.44     LegendNANA
11:00 Legend Double Dagger 11.2 7.9 80 24 25 10.0 100.49     Mainly Clear
12:00 Legend Double Dagger 10.9 7.4 79 24 31 10.0 100.49     LegendNANA
13:00 Legend Double Dagger 10.9 7.6 80 24 29 10.0 100.49     LegendNANA
14:00 Legend Double Dagger 11.0 7.5 79 22 24 10.0 100.56     Mainly Clear
15:00 Legend Double Dagger 10.7 7.2 79 23 31 10.0 100.56     LegendNANA
16:00 Legend Double Dagger 10.6 7.1 79 26 25 10.0 100.55     LegendNANA
17:00 Legend Double Dagger 10.0 7.3 83 24 21 10.0 100.58     Mainly Clear
18:00 Legend Double Dagger 9.5 7.0 84 26 18 10.0 100.64     LegendNANA
19:00 Legend Double Dagger 8.7 6.8 88 23 14 10.0 100.72     LegendNANA
20:00 Legend Double Dagger 7.1 6.2 94 18 8 10.0 100.80     Mostly Cloudy
21:00 Legend Double Dagger 7.9 6.7 92 22 11 10.0 100.88     LegendNANA
22:00 Legend Double Dagger 7.8 6.8 93 23 11 10.0 100.93     LegendNANA
23:00 Legend Double Dagger 8.4 7.0 91 28 14 10.0 100.94     Cloudy

Notes on Data Quality.

Legend

  • E = Estimated
  • M = Missing
  • NA = Not Available
  • ‡ = Partner data that is not subject to review by the National Climate Archives
Date modified: